Погода в Харлово

Россия / Алтайский край     51°41′28″N   82°51′40″E
темп.,
°C
ветер,
м/с
пор.,
м/с
влажн.,
%
обл.,
%
осадки,
мм/ч
давл.,
гПа
погр.,
м
5 марта, пт
пт501:00−10ююв357583 0.0 102162
04:00−10ююв347367 0.0 101854
07:00−6ю4168483 0.0 1017691
10:00−3ююз91782100 0.0 1017770
13:00−3юз121892100 0.4 10201114
16:00−1зюз9157871 0.3 10231188
19:00−3юз8168046 0.3 1026805
22:00−4ююз9197669 0.0 1027842
6 марта, сб
сб601:00−4ююз9207445 0.0 1027856
04:00−5ююз10207160 0.0 1026756
07:00−5ююз9216774 0.0 1027731
10:00−4ююз10206897 0.0 1025910
13:00−2юз11197099 0.0 10231105
16:00−1юз10187254 0.0 10201074
19:00−2юз8187562 0.0 1019732
22:00−3юз61876100 0.0 1019597
7 марта, вс
вс701:00−3юз61974100 0.0 1019577
04:00−4юз71877100 0.0 1018558
07:00−5юз61681100 0.0 1019485
10:00−4юз51382100 0.0 1020495
13:00−3зюз61185100 0.1 1022629
16:00−2зюз51088100 0.3 1022582
19:00−4зюз3690100 0.4 1023152
22:00−6зюз1188100 0.0 102421
8 марта, пн
пн801:00−7вюв228799 0.0 102421
04:00−7юв228696 0.0 102221
07:00−7юв228197 0.0 102122
10:00−5ююв2380100 0.0 101862
13:00+1ююз31491100 0.0 1016841
16:00+2ююз81872100 0.0 1015722
19:00+1ююз101880100 0.0 1015974
22:00+1ююз101986100 0.0 1017757
9 марта, вт
вт901:000юз81597100 0.3 1019925
04:00−3з71391100 0.9 1023663
07:00−11зюз349390 0.9 102779
10:00−9зюз269080 0.0 1028216
13:00−6з248588 0.0 1027316
16:00−4св1191100 0.1 1026224
19:00−6в229296 0.3 102422
22:00−5юв2297100 0.3 102332